CW9638 Weather Reports


Display with metric or nautical units.
time (UTC)temp
F
wind
direction
speed
MPH
gust
MPH
rain 1hr
in
rain 24hr
in
rain mn
in
humidity
%
barometer
mb
20260507114003 44 233 1.0 6.0 0.00 0.00 0.00 82 1013.0
20260507113502 43 240 1.0 4.0 0.00 0.00 0.00 82 1013.0
20260507113103 43 230 1.0 5.0 0.00 0.00 0.00 82 1013.0
20260507112600 43 233 2.0 6.0 0.00 0.00 0.00 82 1013.0
20260507112100 43 229 1.0 6.0 0.00 0.00 0.00 81 1013.0
20260507111559 44 250 2.0 6.0 0.00 0.00 0.00 82 1013.0
20260507111058 44 227 1.0 4.0 0.00 0.00 0.00 81 1013.0
20260507110559 44 243 2.0 4.0 0.00 0.00 0.00 81 1013.0
20260507110059 44 237 2.0 6.0 0.00 0.00 0.00 81 1012.9
20260507105558 44 258 3.0 6.0 0.00 0.00 0.00 81 1012.9
20260507105059 44 231 2.0 6.0 0.00 0.00 0.00 81 1012.9
20260507104558 43 258 2.0 6.0 0.00 0.00 0.00 81 1013.0
20260507104058 43 239 2.0 5.0 0.00 0.00 0.00 81 1013.0
20260507103557 43 229 1.0 4.0 0.00 0.00 0.00 80 1013.0
20260507103057 44 228 2.0 4.0 0.00 0.00 0.00 80 1013.0
20260507102556 44 227 2.0 4.0 0.00 0.00 0.00 80 1013.0
20260507102056 44 226 1.0 5.0 0.00 0.00 0.00 80 1013.0
20260507101555 44 226 3.0 5.0 0.00 0.00 0.00 80 1013.0
20260507101055 44 236 2.0 4.0 0.00 0.00 0.00 79 1013.0
20260507100657 44 236 2.0 4.0 0.00 0.00 0.00 79 1013.0
20260507100057 44 239 2.0 4.0 0.00 0.00 0.00 79 1013.0
20260507095553 44 231 2.0 4.0 0.00 0.00 0.00 78 1013.0
20260507095052 44 232 2.0 4.0 0.00 0.00 0.00 78 1013.0
20260507094555 44 243 1.0 4.0 0.00 0.00 0.00 78 1013.2
20260507094052 44 243 2.0 4.0 0.00 0.00 0.00 78 1013.2
20260507093551 44 239 2.0 4.0 0.00 0.00 0.00 78 1013.2
20260507093051 44 239 2.0 4.0 0.00 0.00 0.00 77 1013.5
20260507092551 44 240 2.0 4.0 0.00 0.00 0.00 77 1013.5
20260507092050 44 237 2.0 4.0 0.00 0.00 0.00 77 1013.5
20260507091550 44 225 2.0 3.0 0.00 0.00 0.00 76 1013.5
20260507091051 44 225 1.0 4.0 0.00 0.00 0.00 76 1013.5
20260507090549 44 225 2.0 5.0 0.00 0.00 0.00 75 1013.5
20260507090050 44 229 2.0 5.0 0.00 0.00 0.00 75 1013.7
20260507085553 44 225 2.0 4.0 0.00 0.00 0.00 75 1013.7
20260507085049 44 229 2.0 5.0 0.00 0.00 0.00 74 1013.7
20260507084553 44 232 2.0 5.0 0.00 0.00 0.00 74 1013.9
20260507084048 44 231 2.0 5.0 0.00 0.00 0.00 74 1013.9
20260507083547 44 232 2.0 5.0 0.00 0.00 0.00 74 1013.9
20260507083050 44 217 2.0 4.0 0.00 0.00 0.00 74 1014.1
20260507082546 43 236 1.0 5.0 0.00 0.00 0.00 73 1014.1
20260507082048 43 237 2.0 4.0 0.00 0.00 0.00 72 1014.1
20260507081545 43 228 1.0 4.0 0.00 0.00 0.00 71 1014.1
20260507081044 43 227 1.0 4.0 0.00 0.00 0.00 70 1014.1
20260507080544 43 227 1.0 4.0 0.00 0.00 0.00 69 1014.1
20260507075546 43 227 2.0 3.0 0.00 0.00 0.00 68 1014.2
20260507075042 43 227 1.0 3.0 0.00 0.00 0.00 67 1014.2
20260507074546 44 227 2.0 4.0 0.00 0.00 0.00 66 1014.4
20260507074041 43 227 2.0 4.0 0.00 0.00 0.00 66 1014.4
20260507073541 43 222 2.0 4.0 0.00 0.00 0.00 66 1014.4
20260507073045 43 221 2.0 4.0 0.00 0.00 0.00 65 1014.6
20260507072541 43 221 2.0 4.0 0.00 0.00 0.00 64 1014.6
20260507072044 44 221 2.0 3.0 0.00 0.00 0.00 64 1014.6
20260507071557 44 221 2.0 3.0 0.00 0.00 0.00 63 1014.8
20260507071043 44 220 1.0 5.0 0.00 0.00 0.00 62 1014.8
20260507070540 45 220 2.0 6.0 0.00 0.00 0.00 61 1014.8
20260507070040 45 215 3.0 6.0 0.00 0.00 0.00 61 1015.1
20260507065538 44 201 3.0 5.0 0.00 0.00 0.00 62 1015.1
20260507065038 44 215 2.0 6.0 0.00 0.00 0.00 61 1015.1
20260507064540 44 227 2.0 6.0 0.00 0.00 0.00 61 1015.2
20260507064037 44 223 2.0 5.0 0.00 0.00 0.00 61 1015.2
20260507063536 44 225 2.0 5.0 0.00 0.00 0.00 61 1015.2
20260507063039 44 217 1.0 4.0 0.00 0.00 0.00 62 1015.2
20260507062533 44 217 1.0 4.0 0.00 0.00 0.00 62 1015.2
20260507062033 43 217 1.0 4.0 0.00 0.00 0.00 63 1015.2
20260507061532 43 230 1.0 3.0 0.00 0.00 0.00 63 1015.4
20260507061033 43 230 0.0 3.0 0.00 0.00 0.00 63 1015.4
20260507060530 43 230 1.0 3.0 0.00 0.00 0.00 64 1015.4
20260507060031 42 230 0.0 2.0 0.00 0.00 0.00 64 1015.4
20260507055532 42 230 0.0 1.0 0.00 0.00 0.00 64 1015.4
20260507055031 42 230 0.0 2.0 0.00 0.00 0.00 64 1015.4
20260507054530 42 230 0.0 2.0 0.00 0.00 0.00 65 1015.4
20260507054030 42 230 0.0 3.0 0.00 0.00 0.00 66 1015.4
20260507053529 42 230 1.0 3.0 0.00 0.00 0.00 65 1015.4
20260507053029 42 230 1.0 3.0 0.00 0.00 0.00 64 1015.2
20260507052528 43 230 0.0 3.0 0.00 0.00 0.00 64 1015.2
20260507052027 42 230 0.0 1.0 0.00 0.00 0.00 63 1015.2
20260507051527 42 230 0.0 1.0 0.00 0.00 0.00 63 1015.5
20260507051025 42 230 0.0 1.0 0.00 0.00 0.00 64 1015.5
20260507050525 42 230 0.0 2.0 0.00 0.00 0.00 63 1015.5
20260507050025 42 230 0.0 2.0 0.00 0.00 0.00 63 1015.5
20260507045525 42 230 0.0 2.0 0.00 0.00 0.00 61 1015.5
20260507045025 43 230 0.0 2.0 0.00 0.00 0.00 60 1015.5
20260507044525 43 230 0.0 2.0 0.00 0.00 0.00 59 1015.6
20260507044025 43 230 0.0 3.0 0.00 0.00 0.00 56 1015.6
20260507043524 42 230 1.0 3.0 0.00 0.00 0.00 58 1015.6
20260507043033 41 230 2.0 3.0 0.00 0.00 0.00 60 1015.7
20260507042523 41 235 2.0 3.0 0.00 0.00 0.00 63 1015.7
20260507042025 40 243 1.0 3.0 0.00 0.00 0.00 65 1015.7
20260507041524 40 325 0.0 2.0 0.00 0.00 0.00 65 1015.7
20260507041023 40 325 0.0 1.0 0.00 0.00 0.00 64 1015.7
20260507040522 41 325 0.0 1.0 0.00 0.00 0.00 63 1015.7
20260507040023 41 325 0.0 2.0 0.00 0.00 0.00 63 1015.8
20260507035523 41 325 0.0 2.0 0.00 0.00 0.00 63 1015.8
20260507035023 41 325 0.0 3.0 0.00 0.00 0.00 61 1015.8
20260507034522 41 325 1.0 3.0 0.00 0.00 0.00 61 1016.1
20260507034022 41 325 0.0 1.0 0.00 0.00 0.00 62 1016.1
20260507033522 41 325 0.0 1.0 0.00 0.00 0.00 62 1016.1
20260507033022 41 325 0.0 1.0 0.00 0.00 0.00 61 1016.1
20260507032522 42 325 0.0 2.0 0.00 0.00 0.00 60 1016.1
20260507032023 42 325 0.0 2.0 0.00 0.00 0.00 59 1016.1
20260507031521 43 325 0.0 3.0 0.00 0.00 0.00 58 1016.1
20260507031021 43 325 1.0 3.0 0.00 0.00 0.00 55 1016.1
20260507030521 43 325 1.0 2.0 0.00 0.00 0.00 54 1016.1
20260507030021 43 325 0.0 3.0 0.00 0.00 0.00 54 1016.1
20260507025520 43 325 1.0 3.0 0.00 0.00 0.00 54 1016.1
20260507025020 43 325 1.0 3.0 0.00 0.00 0.00 55 1016.1
20260507024520 43 325 2.0 3.0 0.00 0.00 0.00 56 1016.0
20260507024023 44 325 2.0 3.0 0.00 0.00 0.00 55 1016.0
20260507023519 44 325 1.0 3.0 0.00 0.00 0.00 54 1016.0
20260507023019 44 325 1.0 3.0 0.00 0.00 0.00 53 1015.7
20260507022519 45 325 2.0 3.0 0.00 0.00 0.00 54 1015.7
20260507022020 45 325 1.0 2.0 0.00 0.00 0.00 54 1015.7
20260507021519 46 325 1.0 2.0 0.00 0.00 0.00 56 1015.7
20260507021020 46 325 0.0 1.0 0.00 0.00 0.00 52 1015.7
20260507020519 47 325 0.0 2.0 0.00 0.00 0.00 52 1015.7
20260507020019 47 325 0.0 3.0 0.00 0.00 0.00 50 1015.6
20260507015521 48 325 2.0 3.0 0.00 0.00 0.00 50 1015.6
20260507015020 48 325 0.0 2.0 0.00 0.00 0.00 50 1015.6
20260507014519 49 325 0.0 2.0 0.00 0.00 0.00 49 1015.6
20260507014019 50 325 0.0 3.0 0.00 0.00 0.00 48 1015.6
20260507013517 51 325 0.0 3.0 0.00 0.00 0.00 46 1015.6
20260507013021 52 325 2.0 4.0 0.00 0.00 0.00 44 1015.5
20260507012521 53 325 2.0 4.0 0.00 0.00 0.00 43 1015.5
20260507012019 54 12 1.0 3.0 0.00 0.00 0.00 38 1015.5
20260507011533 55 12 2.0 3.0 0.00 0.00 0.00 38 1015.6
20260507011017 56 12 2.0 3.0 0.00 0.00 0.00 36 1015.6
20260507010517 58 12 1.0 2.0 0.00 0.00 0.00 34 1015.6
20260507010017 59 12 0.0 2.0 0.00 0.00 0.00 31 1015.6
20260507005518 60 12 0.0 2.0 0.00 0.00 0.00 29 1015.6
20260507005017 60 12 0.0 1.0 0.00 0.00 0.00 29 1015.6
20260507004518 60 12 0.0 1.0 0.00 0.00 0.00 31 1015.6
20260507004017 60 12 0.0 3.0 0.00 0.00 0.00 31 1015.6
20260507003516 59 12 1.0 4.0 0.00 0.00 0.00 29 1015.6
20260507003019 59 12 2.0 6.0 0.00 0.00 0.00 29 1015.8
20260507002516 59 12 3.0 6.0 0.00 0.00 0.00 30 1015.8
20260507002016 59 5 4.0 6.0 0.00 0.00 0.00 28 1015.8
20260507001515 60 355 3.0 5.0 0.00 0.00 0.00 28 1016.0
20260507001016 60 355 3.0 8.0 0.00 0.00 0.00 27 1016.0
20260507000519 60 344 6.0 9.0 0.00 0.00 0.00 27 1016.0
20260507000015 61 340 4.0 9.0 0.00 0.00 0.00 27 1016.1
20260506235516 61 5 6.0 9.0 0.00 0.00 0.00 25 1016.1
20260506235015 61 336 4.0 7.0 0.00 0.00 0.00 26 1016.1
20260506234515 61 306 3.0 9.0 0.00 0.00 0.00 26 1016.2
20260506234015 61 321 5.0 9.0 0.00 0.00 0.00 27 1016.2
20260506233514 61 291 4.0 11.0 0.00 0.00 0.00 25 1016.2
20260506233015 61 299 7.0 11.0 0.00 0.00 0.00 25 1016.2
20260506232513 61 351 5.0 10.0 0.00 0.00 0.00 26 1016.2
20260506232014 61 285 5.0 9.0 0.00 0.00 0.00 26 1016.2
20260506231513 61 250 4.0 8.0 0.00 0.00 0.00 26 1016.3
20260506231014 61 323 4.0 14.0 0.00 0.00 0.00 25 1016.3
20260506230512 61 313 7.0 14.0 0.00 0.00 0.00 25 1016.3
20260506230012 61 306 6.0 12.0 0.00 0.00 0.00 26 1016.5
20260506225512 61 329 7.0 14.0 0.00 0.00 0.00 26 1016.5
20260506225012 61 360 8.0 14.0 0.00 0.00 0.00 26 1016.5
20260506224522 60 333 5.0 11.0 0.00 0.00 0.00 27 1016.5
20260506224014 60 346 4.0 9.0 0.00 0.00 0.00 29 1016.5
20260506223511 60 338 6.0 12.0 0.00 0.00 0.00 28 1016.5
20260506223011 60 344 5.0 13.0 0.00 0.00 0.00 27 1016.6
20260506222511 61 300 8.0 13.0 0.00 0.00 0.00 26 1016.6
20260506222011 61 360 6.0 9.0 0.00 0.00 0.00 25 1016.6
20260506221510 60 317 4.0 9.0 0.00 0.00 0.00 27 1016.8
20260506221010 59 9 6.0 11.0 0.00 0.00 0.00 29 1016.8
20260506220511 60 355 6.0 13.0 0.00 0.00 0.00 27 1016.8
20260506220010 60 298 5.0 11.0 0.00 0.00 0.00 28 1016.8
20260506215509 60 5 6.0 11.0 0.00 0.00 0.00 29 1016.8
20260506215009 60 23 7.0 12.0 0.00 0.00 0.00 27 1016.8
20260506214510 61 329 8.0 15.0 0.00 0.00 0.00 27 1016.8
20260506214009 62 302 10.0 18.0 0.00 0.00 0.00 26 1016.8
20260506213508 62 281 9.0 18.0 0.00 0.00 0.00 25 1016.8
20260506213013 62 298 7.0 15.0 0.00 0.00 0.00 26 1017.1
20260506212510 62 5 5.0 12.0 0.00 0.00 0.00 27 1017.1
20260506212007 61 321 7.0 12.0 0.00 0.00 0.00 26 1017.1
20260506211505 61 294 6.0 16.0 0.00 0.00 0.00 27 1017.3
20260506211005 61 263 8.0 16.0 0.00 0.00 0.00 26 1017.3
20260506210504 60 307 8.0 15.0 0.00 0.00 0.00 27 1017.3
20260506210002 60 309 6.0 11.0 0.00 0.00 0.00 28 1017.5
20260506205503 59 299 4.0 15.0 0.00 0.00 0.00 29 1017.5
20260506205003 59 316 9.0 15.0 0.00 0.00 0.00 29 1017.5
20260506204504 59 355 6.0 15.0 0.00 0.00 0.00 29 1017.7
20260506204002 59 325 5.0 15.0 0.00 0.00 0.00 28 1017.7
20260506203502 60 327 7.0 13.0 0.00 0.00 0.00 29 1017.7
20260506203003 60 262 5.0 13.0 0.00 0.00 0.00 29 1017.8
20260506202600 59 257 5.0 12.0 0.00 0.00 0.00 30 1017.8
20260506202100 58 325 5.0 14.0 0.00 0.00 0.00 30 1017.8
20260506201600 58 328 8.0 14.0 0.00 0.00 0.00 29 1017.9
20260506201101 59 15 5.0 9.0 0.00 0.00 0.00 32 1017.9
20260506200559 58 267 4.0 13.0 0.00 0.00 0.00 30 1017.9
20260506200100 57 329 6.0 13.0 0.00 0.00 0.00 30 1018.3
20260506195601 58 360 9.0 16.0 0.00 0.00 0.00 31 1018.3
20260506195100 58 340 11.0 17.0 0.00 0.00 0.00 30 1018.3
20260506194559 59 284 9.0 17.0 0.00 0.00 0.00 30 1018.3
20260506194058 58 242 7.0 13.0 0.00 0.00 0.00 31 1018.3
20260506193557 58 355 7.0 14.0 0.00 0.00 0.00 31 1018.3
20260506193058 58 355 9.0 17.0 0.00 0.00 0.00 30 1018.3
20260506192558 58 346 9.0 17.0 0.00 0.00 0.00 31 1018.3
20260506192100 58 309 5.0 11.0 0.00 0.00 0.00 31 1018.3
20260506191604 58 293 5.0 11.0 0.00 0.00 0.00 31 1018.3
20260506191057 58 360 5.0 16.0 0.00 0.00 0.00 30 1018.3
20260506190557 59 308 7.0 16.0 0.00 0.00 0.00 30 1018.3
20260506190058 58 311 6.0 13.0 0.00 0.00 0.00 31 1018.4
20260506185555 57 309 8.0 13.0 0.00 0.00 0.00 33 1018.4
20260506185058 57 11 8.0 16.0 0.00 0.00 0.00 30 1018.4
20260506184601 57 5 7.0 16.0 0.00 0.00 0.00 31 1018.7
20260506184055 57 287 8.0 14.0 0.00 0.00 0.00 32 1018.7
20260506183554 57 339 6.0 13.0 0.00 0.00 0.00 30 1018.7
20260506183058 57 279 7.0 18.0 0.00 0.00 0.00 32 1018.8
20260506182553 57 355 8.0 18.0 0.00 0.00 0.00 30 1018.8
20260506182053 57 333 5.0 13.0 0.00 0.00 0.00 31 1018.8
20260506181556 58 327 9.0 15.0 0.00 0.00 0.00 32 1018.8
20260506181051 58 284 5.0 15.0 0.00 0.00 0.00 34 1018.8
20260506180551 57 296 7.0 15.0 0.00 0.00 0.00 31 1018.8
20260506180053 56 318 7.0 19.0 0.00 0.00 0.00 32 1019.1
20260506175548 56 344 8.0 19.0 0.00 0.00 0.00 32 1019.1
20260506175050 56 345 7.0 13.0 0.00 0.00 0.00 32 1019.1
20260506174559 56 321 8.0 13.0 0.00 0.00 0.00 34 1019.2
20260506174050 56 343 8.0 14.0 0.00 0.00 0.00 33 1019.2
20260506173546 56 293 6.0 14.0 0.00 0.00 0.00 34 1019.2
20260506173052 55 54 7.0 11.0 0.00 0.00 0.00 33 1019.4
20260506172543 55 295 7.0 12.0 0.00 0.00 0.00 34 1019.4
20260506172043 55 292 6.0 12.0 0.00 0.00 0.00 33 1019.4
20260506171543 55 327 6.0 11.0 0.00 0.00 0.00 34 1019.6
20260506171043 55 5 3.0 12.0 0.00 0.00 0.00 34 1019.6
20260506170542 55 308 5.0 14.0 0.00 0.00 0.00 36 1019.6
20260506170040 54 336 3.0 15.0 0.00 0.00 0.00 35 1019.9
20260506165540 54 355 9.0 15.0 0.00 0.00 0.00 33 1019.9
20260506165040 54 284 7.0 16.0 0.00 0.00 0.00 34 1019.9
20260506164546 54 322 10.0 16.0 0.00 0.00 0.00 35 1019.7
20260506164039 54 309 6.0 14.0 0.00 0.00 0.00 34 1019.7
20260506163538 54 25 9.0 14.0 0.00 0.00 0.00 34 1019.7
20260506163054 54 327 10.0 15.0 0.00 0.00 0.00 36 1019.8
20260506162536 54 360 8.0 15.0 0.00 0.00 0.00 36 1019.8
20260506162037 54 355 8.0 14.0 0.00 0.00 0.00 34 1019.8
20260506161537 53 309 6.0 15.0 0.00 0.00 0.00 36 1019.7
20260506161037 53 337 8.0 15.0 0.00 0.00 0.00 36 1019.7
20260506160535 53 311 6.0 9.0 0.00 0.00 0.00 35 1019.7
20260506160035 53 344 6.0 11.0 0.00 0.00 0.00 35 1019.6
20260506155535 53 332 7.0 11.0 0.00 0.00 0.00 37 1019.6
20260506155036 53 259 5.0 13.0 0.00 0.00 0.00 35 1019.6
20260506154537 53 325 9.0 13.0 0.00 0.00 0.00 35 1019.5
20260506154033 53 5 7.0 15.0 0.00 0.00 0.00 36 1019.5
20260506153532 53 311 4.0 15.0 0.00 0.00 0.00 36 1019.5
20260506153032 53 5 7.0 11.0 0.00 0.00 0.00 37 1019.4
20260506152530 53 349 6.0 10.0 0.00 0.00 0.00 36 1019.4
20260506152029 53 293 5.0 10.0 0.00 0.00 0.00 38 1019.4
20260506151537 53 279 5.0 12.0 0.00 0.00 0.00 38 1019.5
20260506151027 52 304 7.0 12.0 0.00 0.00 0.00 39 1019.5
20260506150526 52 340 5.0 9.0 0.00 0.00 0.00 39 1019.5
20260506150025 52 351 4.0 9.0 0.00 0.00 0.00 39 1019.5
20260506145524 52 5 5.0 9.0 0.00 0.00 0.00 42 1019.5
20260506145024 51 329 5.0 9.0 0.00 0.00 0.00 39 1019.5
20260506144523 51 360 4.0 9.0 0.00 0.00 0.00 42 1019.7
20260506144023 51 355 6.0 9.0 0.00 0.00 0.00 40 1019.7
20260506143521 51 344 4.0 8.0 0.00 0.00 0.00 43 1019.7
20260506143019 51 11 1.0 7.0 0.00 0.00 0.00 46 1019.6
20260506142522 50 345 3.0 7.0 0.00 0.00 0.00 44 1019.6
20260506142024 50 12 1.0 5.0 0.00 0.00 0.00 45 1019.6
20260506141519 50 342 2.0 5.0 0.00 0.00 0.00 46 1019.5
20260506141023 50 333 0.0 6.0 0.00 0.00 0.00 50 1019.5
20260506140518 49 324 3.0 6.0 0.00 0.00 0.00 49 1019.5
20260506140026 49 53 3.0 6.0 0.00 0.00 0.00 49 1019.4
20260506135518 48 320 3.0 5.0 0.00 0.00 0.00 51 1019.4
20260506135020 48 350 3.0 5.0 0.00 0.00 0.00 53 1019.4
20260506134515 47 331 1.0 4.0 0.00 0.00 0.00 55 1019.3
20260506134017 47 311 2.0 5.0 0.00 0.00 0.00 56 1019.3
20260506133513 47 302 1.0 4.0 0.00 0.00 0.00 56 1019.3
20260506133013 46 302 2.0 4.0 0.00 0.00 0.00 57 1019.1
20260506132515 46 294 2.0 4.0 0.00 0.00 0.00 57 1019.1
20260506132012 45 294 1.0 4.0 0.00 0.00 0.00 57 1019.1
20260506131518 45 295 1.0 4.0 0.00 0.00 0.00 58 1018.9
20260506131015 45 291 0.0 4.0 0.00 0.00 0.00 60 1018.9
20260506130514 44 291 1.0 4.0 0.00 0.00 0.00 61 1018.9
20260506130010 43 254 1.0 3.0 0.00 0.00 0.00 64 1018.9
20260506125508 43 254 1.0 3.0 0.00 0.00 0.00 67 1018.9
20260506125008 42 250 0.0 2.0 0.00 0.00 0.00 71 1018.9
20260506124507 41 250 0.0 2.0 0.00 0.00 0.00 72 1018.5
20260506124009 40 250 0.0 2.0 0.00 0.00 0.00 72 1018.5
20260506123506 40 250 1.0 3.0 0.00 0.00 0.00 72 1018.5
20260506123009 39 250 1.0 3.0 0.00 0.00 0.00 73 1018.3
20260506122506 39 250 2.0 3.0 0.00 0.00 0.00 74 1018.3
20260506122004 38 250 2.0 3.0 0.00 0.00 0.00 74 1018.3
20260506121505 38 259 0.0 2.0 0.00 0.00 0.00 74 1018.1
20260506121004 37 259 1.0 3.0 0.00 0.00 0.00 75 1018.1
20260506120504 37 259 1.0 4.0 0.00 0.00 0.00 75 1018.1
20260506120002 36 259 2.0 4.0 0.00 0.00 0.00 75 1017.8
20260506115503 36 259 2.0 3.0 0.00 0.00 0.00 74 1017.8
20260506115100 36 259 2.0 4.0 0.00 0.00 0.00 73 1017.8
20260506114600 37 260 2.0 4.0 0.00 0.00 0.00 72 1017.7